Regional Weather Roundup
Issued by NWS

Home | Current Version | Previous Version | Text Only | Print | Product List | Glossary On
Versions: 1 2 3 4 5 6 7 8 9 10 11 12 13 14 15 16 17 18 19 20 21 22 23 24 25 26 27 28 29 30 31 32 33 34 35 36 37 38 39 40 41 42 43 44 45 46 47 48 49 50
000
ASUS43 KIND 162109
RWRIN

WEATHER ROUNDUP FOR INDIANA
NATIONAL WEATHER SERVICE INDIANAPOLIS IN
500 PM EDT TUE SEP 16 2014

NOTE: "FAIR" INDICATES FEW OR NO CLOUDS BELOW 12,000 FEET WITH NO
SIGNIFICANT WEATHER AND/OR OBSTRUCTIONS TO VISIBILITY.

* - STATION DOES NOT REPORT WEATHER SUCH AS PRECIPITATION OR FOG.

+ - STATION NOT QUALITY CONTROLLED BY THE NATIONAL WEATHER SERVICE.
    USE DATA WITH CAUTION...ESPECIALLY DEWPOINT AND RELATIVE
    HUMIDITY OBSERVATIONS.

INZ001>003-010>013-019-020-162200-
NORTHWEST INDIANA

CITY           SKY/WX    TMP DP  RH WIND       PRES   REMARKS
GARY /AIRPORT/ MOSUNNY   66  46  48 NE9       30.12F
KNOX *+        MOSUNNY   64  46  52 NW3       30.11F
LA PORTE +     MOSUNNY   63  48  57 W6        30.13F
MICHIGAN CITY+ SUNNY     63  45  51 NW5       30.13F
MONTICELLO +   SUNNY     65  47  52 CALM      30.12F
RENSSELAER +   PTSUNNY   66  46  48 SW3       30.13F
VALPARAISO     MOSUNNY   66  45  46 W6        30.12F

$$

LMZ046-743>745-162200-
SOUTHERN LAKE MICHIGAN

STATION/POSITION TIME  TEMP WIND        PRES
                       AIR  DIR/SP/G
                 (UTC) (F)  (DEG/KT/KT) (MB)
MICHIGAN CITY    2100   60  360/  6/  8   N/A

$$

INZ004-005-014>016-021>024-162200-
NORTH CENTRAL INDIANA

CITY           SKY/WX    TMP DP  RH WIND       PRES   REMARKS
ELKHART        PTSUNNY   63  46  55 W6        30.12F
GOSHEN         MOSUNNY   66  45  46 W8        30.11F
LOGANSPORT +   SUNNY     64  43  45 N5        30.12F
PERU/GRISSOM   SUNNY     66  46  49 NE5       30.11F
ROCHESTER +    MOSUNNY   68  46  45 W7        30.13S
SOUTH BEND     MOSUNNY   65  47  52 NW7       30.13S
WARSAW +       SUNNY     63  45  51 NW9       30.12S

$$

INZ006>009-017-018-025>027-162200-
NORTHEAST INDIANA

CITY           SKY/WX    TMP DP  RH WIND       PRES   REMARKS
ANGOLA *+      MOSUNNY   68  45  42 SW10      30.10F
AUBURN +       MOSUNNY   66  41  39 W6        30.11F
FORT WAYNE     MOSUNNY   65  45  48 NW5       30.12F
HUNTINGTON +   SUNNY     64  46  52 CALM      30.11F

$$

INZ028-029-035-036-043>045-051>053-162200-
WEST CENTRAL INDIANA

CITY           SKY/WX    TMP DP  RH WIND       PRES   REMARKS
GREENCASTLE +  PTSUNNY   64  50  59 W3        30.13F
LAFAYETTE      MOSUNNY   65  46  50 NW9       30.12F
TERRE HAUTE    PTSUNNY   65  49  56 SW5       30.12F

$$

INZ030>032-037>040-046>048-054>057-064-065-162200-
CENTRAL INDIANA

CITY           SKY/WX    TMP DP  RH WIND       PRES   REMARKS
CP ATTERBURY + CLOUDY    61  50  67 CALM      30.14F
COLUMBUS       CLOUDY    59  52  77 CALM      30.14F
FRANKFORT +    MOSUNNY   64  49  57 NW5       30.13F
INDIANAPOLIS   PTSUNNY   63  49  60 SE7       30.12F
-EAGLE CREEK   MOSUNNY   66  45  46 CALM      30.12F
KOKOMO *+      SUNNY     66  45  45 NE5       30.12F
MARION +       PTSUNNY   65  47  52 SE5       30.12F
MT COMFORT *+  CLOUDY    64  45  48 N5        30.13F
SHELBYVILLE    CLOUDY    63  50  62 CALM      30.13F
ZIONSVILLE +   MOSUNNY   65  47  52 CALM      30.13F

$$

INZ033-034-041-042-049-050-058-059-162200-
EAST CENTRAL INDIANA

CITY           SKY/WX    TMP DP  RH WIND       PRES   REMARKS
MUNCIE         CLOUDY    62  48  60 NW3       30.13F

$$

INZ060-061-067>069-081>083-085>088-162200-
SOUTHWEST INDIANA

CITY           SKY/WX    TMP DP  RH WIND       PRES   REMARKS
EVANSVILLE     CLOUDY    66  51  58 N9        30.12F
WASHINGTON +   CLOUDY    62  52  70 N6        30.13F

$$

INZ062-063-066-070>080-084-089>092-162200-
SOUTH CENTRAL AND SOUTHEAST INDIANA

CITY           SKY/WX    TMP DP  RH WIND       PRES   REMARKS
BLOOMINGTON    MOSUNNY   62  50  64 CALM      30.13F

$$



USA.gov is the U.S. government's official web portal to all federal, state and local government web resources and services.